International Skating Union - Official Site

Essent ISU World Cup Astana
November 25-27, 2011

Draw | Lap Times | Index | World Cup

Referee: Jan  AUGUSTINUS  (NED)
Starter: Luigi  CASAL  (ITA)
StartTime: EndTime: Air Temp: Ice Temp: Humidity:
11:49 12:38 15.2℃ -6.5℃ 29.5%
Result 5000m Men Division B
Rankings as of Nov 27 2011 3:35PM
Rank: No.: Name: Nation: Time: Behind: Points:
1 108 Shani  DAVIS USA USA 6:28.11200m - 19.88 - (19.8)
600m - 49.82 - (29.9)
1000m - 1:20.56 - (30.7)
1400m - 1:51.65 - (31.0)
1800m - 2:22.90 - (31.2)
2200m - 2:53.65 - (30.7)
2600m - 3:24.33 - (30.6)
3000m - 3:55.36 - (31.0)
3400m - 4:26.49 - (31.1)
3800m - 4:57.21 - (30.7)
4200m - 5:27.91 - (30.7)
4600m - 5:58.20 - (30.2)
5000m - 6:28.11 - (29.9)
25
2 46 Dmitry  BABENKO KAZ KAZ 6:28.20200m - 18.82 - (18.8)
600m - 49.36 - (30.5)
1000m - 1:20.53 - (31.1)
1400m - 1:51.66 - (31.1)
1800m - 2:22.82 - (31.1)
2200m - 2:53.94 - (31.1)
2600m - 3:24.82 - (30.8)
3000m - 3:55.46 - (30.6)
3400m - 4:25.80 - (30.3)
3800m - 4:56.36 - (30.5)
4200m - 5:27.29 - (30.9)
4600m - 5:57.69 - (30.3)
5000m - 6:28.20 - (30.5)
0.09 19
3 103 Denis  YUSKOV RUS RUS 6:29.72200m - 19.93 - (19.9)
600m - 50.42 - (30.4)
600m - 50.42 - (30.4)
1000m - 1:02.77 - (31.0)
1000m - 1:21.48 - (31.0)
1400m - 1:52.04 - (30.5)
1800m - 2:22.20 - (30.1)
2200m - 2:52.47 - (30.2)
2600m - 3:22.72 - (30.2)
3000m - 3:52.89 - (30.1)
3400m - 4:23.28 - (30.3)
3800m - 4:54.02 - (30.7)
4200m - 5:25.52 - (31.5)
4600m - 5:57.61 - (32.0)
5000m - 6:29.72 - (32.1)
1.61 15
4 64 Haralds  SILOVS LAT LAT 6:30.42200m - 19.05 - (19.0)
600m - 49.40 - (30.3)
1000m - 1:20.67 - (31.2)
1400m - 1:51.78 - (31.1)
1800m - 2:22.78 - (31.0)
2200m - 2:53.62 - (30.8)
2600m - 3:24.25 - (30.6)
3000m - 3:54.93 - (30.6)
3400m - 4:25.70 - (30.7)
3800m - 4:56.40 - (30.6)
4200m - 5:27.30 - (30.9)
4600m - 5:58.83 - (31.5)
5000m - 6:30.42 - (31.5)
2.31 11
5 24 Ewen  FERNANDEZ FRA FRA 6:32.43200m - 18.91 - (18.9)
600m - 48.43 - (29.5)
1000m - 1:19.27 - (30.8)
1400m - 1:50.77 - (31.5)
1800m - 2:22.34 - (31.5)
2200m - 2:53.38 - (31.0)
2600m - 3:24.62 - (31.2)
3000m - 3:55.43 - (30.8)
3400m - 4:26.35 - (30.9)
3800m - 4:57.53 - (31.1)
4200m - 5:29.00 - (31.4)
4600m - 6:00.81 - (31.8)
5000m - 6:32.43 - (31.6)
4.32 8
6 81 Kristian Reistad  FREDRIKSEN NOR NOR 6:33.14200m - 19.50 - (19.5)
600m - 50.67 - (31.1)
1000m - 1:21.88 - (31.2)
1400m - 1:53.05 - (31.1)
1800m - 2:23.28 - (30.2)
2200m - 2:54.13 - (30.8)
2600m - 3:25.02 - (30.8)
3000m - 3:55.93 - (30.9)
3400m - 4:27.05 - (31.1)
3800m - 4:58.29 - (31.2)
4200m - 5:29.85 - (31.5)
4600m - 6:01.70 - (31.8)
5000m - 6:33.14 - (31.4)
5.03 6
7 45 Norimasa  ZAIKE JPN JPN 6:35.03200m - 19.06 - (19.0)
600m - 49.15 - (30.0)
1000m - 1:19.28 - (30.1)
1400m - 1:49.59 - (30.3)
1800m - 2:20.25 - (30.6)
2200m - 2:51.09 - (30.8)
2600m - 3:22.47 - (31.3)
3000m - 3:54.13 - (31.6)
3400m - 4:26.16 - (32.0)
3800m - 4:58.63 - (32.4)
4200m - 5:31.21 - (32.5)
4600m - 6:03.31 - (32.1)
5000m - 6:35.03 - (31.7)
6.92 4
8 92 Jan  SZYMANSKI POL POL 6:35.50200m - 18.92 - (18.9)
600m - 48.34 - (29.4)
1000m - 1:18.75 - (30.4)
1400m - 1:49.61 - (30.8)
1800m - 2:20.89 - (31.2)
2200m - 2:52.14 - (31.2)
2600m - 3:23.56 - (31.4)
3000m - 3:55.18 - (31.6)
3400m - 4:26.37 - (31.1)
3800m - 4:57.99 - (31.6)
4200m - 5:30.50 - (32.5)
4600m - 6:03.42 - (32.9)
5000m - 6:35.50 - (32.0)
7.39 2
9 15 Mathieu  GIROUX CAN CAN 6:36.00200m - 19.08 - (19.0)
600m - 48.96 - (29.8)
1000m - 1:19.10 - (30.1)
1400m - 1:49.58 - (30.4)
1800m - 2:19.93 - (30.3)
2200m - 2:50.61 - (30.6)
2600m - 3:21.42 - (30.8)
3000m - 3:52.68 - (31.2)
3400m - 4:24.36 - (31.6)
3800m - 4:56.58 - (32.2)
4200m - 5:29.43 - (32.8)
4600m - 6:02.74 - (33.3)
5000m - 6:36.00 - (33.2)
7.89 1
10 89 Slawomir  CHMURA POL POL 6:36.25200m - 20.19 - (20.1)
600m - 50.86 - (30.6)
1000m - 1:22.16 - (31.2)
1400m - 1:53.49 - (31.3)
1800m - 2:25.44 - (31.9)
2200m - 2:56.85 - (31.4)
2600m - 3:27.98 - (31.1)
3000m - 3:58.96 - (30.9)
3400m - 4:29.86 - (30.9)
3800m - 5:00.89 - (31.0)
4200m - 5:32.27 - (31.3)
4600m - 6:04.12 - (31.8)
5000m - 6:36.25 - (32.1)
8.14 0
11 90 Roland  CIESLAK POL POL 6:36.70200m - 19.96 - (19.9)
600m - 50.95 - (30.9)
1000m - 1:22.47 - (31.5)
1400m - 1:53.83 - (31.3)
1800m - 2:25.05 - (31.2)
2200m - 2:56.10 - (31.0)
2600m - 3:27.23 - (31.1)
3000m - 3:58.18 - (30.9)
3400m - 4:29.05 - (30.8)
3800m - 5:00.06 - (31.0)
4200m - 5:31.87 - (31.8)
4600m - 6:04.06 - (32.1)
5000m - 6:36.70 - (32.6)
8.59 0
12 31 Robert  LEHMANN GER GER 6:37.15200m - 19.39 - (19.3)
600m - 49.84 - (30.4)
1000m - 1:21.08 - (31.2)
1400m - 1:52.54 - (31.4)
1800m - 2:24.28 - (31.7)
2200m - 2:56.21 - (31.9)
2600m - 3:27.43 - (31.2)
3000m - 3:58.93 - (31.5)
3400m - 4:30.62 - (31.6)
3800m - 5:02.06 - (31.4)
4200m - 5:34.04 - (31.9)
4600m - 6:06.15 - (32.1)
5000m - 6:37.15 - (31.0)
9.04 0
13 3 Ferre  SPRUYT BEL BEL 6:37.60200m - 19.43 - (19.4)
600m - 49.53 - (30.1)
1000m - 1:20.43 - (30.9)
1400m - 1:51.84 - (31.4)
1800m - 2:23.16 - (31.3)
2200m - 2:54.99 - (31.8)
2600m - 3:26.49 - (31.5)
3000m - 3:58.38 - (31.8)
3400m - 4:30.26 - (31.8)
3800m - 5:02.53 - (32.2)
4200m - 5:34.67 - (32.1)
4600m - 6:06.45 - (31.7)
5000m - 6:37.60 - (31.1)
9.49 0
14 5 Vitaly  MIKHAILOV BLR BLR 6:38.37200m - 19.74 - (19.7)
600m - 50.36 - (30.6)
1000m - 1:21.65 - (31.2)
1400m - 1:52.67 - (31.0)
1800m - 2:24.05 - (31.3)
2200m - 2:55.51 - (31.4)
2600m - 3:26.94 - (31.4)
3000m - 3:58.14 - (31.1)
3400m - 4:29.71 - (31.5)
3800m - 5:01.44 - (31.7)
4200m - 5:33.65 - (32.2)
4600m - 6:06.19 - (32.5)
5000m - 6:38.37 - (32.1)
10.26 0
15 12 Lucas  MAKOWSKY CAN CAN 6:38.86200m - 19.62 - (19.6)
600m - 51.00 - (31.3)
600m - 32.28 - (12.6)
1000m - 1:22.35 - (31.3)
1400m - 1:53.54 - (31.1)
1800m - 2:24.76 - (31.2)
2200m - 2:56.01 - (31.2)
2600m - 3:27.41 - (31.4)
3000m - 3:58.92 - (31.5)
3400m - 4:30.65 - (31.7)
3800m - 5:02.59 - (31.9)
4200m - 5:34.33 - (31.7)
4600m - 6:06.40 - (32.0)
5000m - 6:38.86 - (32.4)
10.75 0
16 41 Teppei  MORI JPN JPN 6:40.09200m - 19.45 - (19.4)
600m - 50.44 - (30.9)
1000m - 1:22.01 - (31.5)
1400m - 1:53.53 - (31.5)
1800m - 2:25.13 - (31.5)
2200m - 2:56.86 - (31.7)
2600m - 3:28.26 - (31.3)
3000m - 3:59.72 - (31.4)
3400m - 4:31.45 - (31.7)
3800m - 5:03.53 - (32.0)
4200m - 5:35.83 - (32.3)
4600m - 6:07.97 - (32.1)
5000m - 6:40.09 - (32.1)
11.98 0
17 47 Maxim  BAKLASHKIN KAZ KAZ 6:40.28200m - 19.51 - (19.5)
600m - 49.81 - (30.3)
1000m - 1:20.48 - (30.6)
1400m - 1:51.61 - (31.1)
1800m - 2:22.59 - (30.9)
2200m - 2:53.77 - (31.1)
2600m - 3:24.99 - (31.2)
3000m - 3:56.98 - (31.9)
3400m - 4:29.09 - (32.1)
3800m - 5:01.54 - (32.4)
4200m - 5:34.25 - (32.7)
4600m - 6:07.20 - (32.9)
5000m - 6:40.28 - (33.0)
12.17 0
18 17 Zdenek  HASELBERGER CZE CZE 6:42.17200m - 19.78 - (19.7)
600m - 50.57 - (30.7)
1000m - 1:20.90 - (30.3)
1400m - 1:52.04 - (31.1)
1800m - 2:23.26 - (31.2)
2200m - 2:54.66 - (31.4)
2600m - 3:26.51 - (31.8)
3000m - 3:58.34 - (31.8)
3400m - 4:30.48 - (32.1)
3800m - 5:03.42 - (32.9)
4200m - 5:36.24 - (32.8)
4600m - 6:09.37 - (33.1)
5000m - 6:42.17 - (32.8)
14.06 0
19 114 Patrick  MEEK USA USA 6:42.18200m - 20.66 - (20.6)
600m - 50.31 - (29.6)
1000m - 1:22.04 - (31.7)
1400m - 1:53.58 - (31.5)
1800m - 2:25.04 - (31.4)
2200m - 2:56.55 - (31.5)
2600m - 3:27.94 - (31.3)
3000m - 3:59.31 - (31.3)
3400m - 4:31.18 - (31.8)
3800m - 5:03.33 - (32.1)
4200m - 5:35.79 - (32.4)
4600m - 6:08.77 - (32.9)
5000m - 6:42.18 - (33.4)
14.07 0
20 2 Joshua  LOSE AUS AUS 6:43.73200m - 19.83 - (19.8)
600m - 50.23 - (30.3)
1000m - 1:21.08 - (30.8)
1400m - 1:52.41 - (31.3)
1800m - 2:23.77 - (31.3)
2200m - 2:54.88 - (31.1)
2600m - 3:26.68 - (31.8)
3000m - 3:58.36 - (31.6)
3400m - 4:30.49 - (32.1)
3800m - 5:02.80 - (32.3)
4200m - 5:35.81 - (33.0)
4600m - 6:09.46 - (33.6)
5000m - 6:43.73 - (34.2)
15.62 0
21 106 Martin  HÄNGGI SUI SUI 6:43.83200m - 19.59 - (19.5)
600m - 50.59 - (31.0)
1000m - 1:22.01 - (31.4)
1400m - 1:53.43 - (31.4)
1800m - 2:24.97 - (31.5)
2200m - 2:56.50 - (31.5)
2600m - 3:28.67 - (32.1)
3000m - 4:00.90 - (32.2)
3400m - 4:33.29 - (32.3)
3800m - 5:05.97 - (32.6)
4200m - 5:38.50 - (32.5)
4600m - 6:10.95 - (32.4)
5000m - 6:43.83 - (32.8)
15.72 0
22 105 Mikhail  KOCHNEV RUS RUS 6:45.98200m - 19.79 - (19.7)
600m - 50.74 - (30.9)
1000m - 1:21.94 - (31.1)
1400m - 1:53.58 - (31.6)
1800m - 2:25.23 - (31.6)
2200m - 2:56.73 - (31.5)
2600m - 3:28.50 - (31.7)
3000m - 4:00.56 - (32.0)
3400m - 4:32.93 - (32.3)
3800m - 5:05.71 - (32.7)
4200m - 5:38.56 - (32.8)
4600m - 6:11.99 - (33.4)
5000m - 6:45.98 - (34.0)
17.87 0
23 113 Trevor  MARSICANO USA USA 6:46.97200m - 19.86 - (19.8)
600m - 50.42 - (30.5)
1000m - 1:21.36 - (30.9)
1400m - 1:52.54 - (31.1)
1800m - 2:23.63 - (31.0)
2200m - 2:54.86 - (31.2)
2600m - 3:26.36 - (31.5)
3000m - 3:58.46 - (32.0)
3400m - 4:31.13 - (32.6)
3800m - 5:04.17 - (33.0)
4200m - 5:37.68 - (33.5)
4600m - 6:11.95 - (34.2)
5000m - 6:46.97 - (35.0)
18.86 0
24 52 Nikita  STAVTSEV KAZ KAZ 6:47.68200m - 19.83 - (19.8)
600m - 51.77 - (31.9)
1000m - 1:24.39 - (32.6)
1400m - 1:56.55 - (32.1)
1800m - 2:28.36 - (31.8)
2200m - 3:00.31 - (31.9)
2600m - 3:32.61 - (32.3)
3000m - 4:04.61 - (32.0)
3400m - 4:36.98 - (32.3)
3800m - 5:09.33 - (32.3)
4200m - 5:42.10 - (32.7)
4600m - 6:15.17 - (33.0)
5000m - 6:47.68 - (32.5)
19.57 0